DECAYED

STARLINK-1588, 46118 (Decayed)

Orbit data source: Space-Track

STARLINK-1588, 46118 was a payload satellite owned by SpaceX/Seattle (US) in LEO that was launched on Tue, 18 Aug 2020 UTC via an FALCON 9 launch vehicle from the Air Force Eastern Test Range (AFETR). Payload-class satellites include a variety of spacecraft equipped with specific instruments for various scientific and technological missions. These include communications satellites like Starlink; space stations such as the ISS; scientific satellites like the Hubble; Earth observation satellites from companies like Planet Labs, Umbra, and HawkEye 360; GPS; miniature CubeSats for education and research; and military/defense satellites.

Not visible in the next 10 days
Identifier
46118, 2020-057B
Orbit
Decayed
Country
Flag of USUS
Related business
Manufacturer
SpaceX/Seattle
Mission
Decayed Commercial Communications
Bus & Motor
STARLINK, Unknown motor
Mass
260 kg wet, ~248 kg dry
Launch date (UTC)
2020-08-18 (5 years ago)
Launch vehicle
FALCON 9
Launch site
Air Force Eastern Test Range (AFETR)
Object type
Payload
Rocket body
Debris
Shape & HBR
Box + 1 Pan, 10.1 m
Radar Cross Section
13.562 m², Large (>1 m²)

Expand to show TLE details & history
Last TLE update: 5 months ago

TLE from 5 months ago
0 STARLINK-1588
1 46118U 20057B   25151.89223394  .35230939  12819-4  25470-3 0  9998
2 46118  53.0242 100.9029 0007738 328.0880 140.6063 16.52536650264813
Epoch: 2025-05-31T21:24Z
TLE epoch observation values (Epoch: 2025-05-31T21:24:49.012Z)
Latitude
49.31112°
Longitude
9.54355°
Altitude
142.157 km
Speed
7.825 km/s
True Right ascension
14h 41m 29s
True Declination
49° 07' 30"
Sunlit
Object was in full shadow at epoch
Visualization orbit readout
Latitude
Unknown
Longitude
Unknown
Altitude
Unknown
Speed
Unknown
Apparent Right ascension
Unknown
Apparent Declination
Unknown
Sunlit
N/A
Visualization observer readout
Local Sidereal Time
04:21:37
Azimuth
Unknown
Elevation
Unknown
Doppler factor
Unknown
Orbital elements
Apogee altitude
137.995 km
Perigee altitude
127.919 km
Semi-major axis
6,511.094 km
Eccentricity
0.00077
Inclination
53.0242°
RAAN
100.9029°
Arg. of periapsis
328.088°
True anomaly
140.66253°
Mean anomaly
140.6063°
Eccentric anomaly
140.63442°
Mean motion
4.13107 °/min
Orbital period
87.14 mins
BSTAR
0.0002547
Loading maneuver chart data...
Computing Atmospheric mass density...

Documentation

Showing up to 5 results
|